Change the Weather History Date:

Friday, January 17, 2014

  Actual Average Record
Temperature  
Mean Temperature 30 °F -  
Max Temperature 37 °F 29 °F 54 °F (1990)
Min Temperature 24 °F 13 °F -13 °F (2011)
Degree Days  
Heating Degree Days 34    
Moisture  
Dew Point 22 °F    
Average Humidity 72    
Maximum Humidity 85    
Minimum Humidity 51    
Precipitation  
Precipitation 0.00 in - - ()
Sea Level Pressure  
Sea Level Pressure 29.89 in    
Wind  
Wind Speed 6 mph (SE)    
Max Wind Speed 9 mph    
Max Gust Speed -    
Visibility 9 miles    
Events Snow    
Averages and records for this station are not official NWS values.
T = Trace of Precipitation, MM = Missing Value Source: NWS Daily Summary

Daily Weather History Graph

Daily Weather History Graph

Search for Another Location

Airport or City:

Trip Planner

Search our weather history database for the weather conditions in past years. The results will help you decide how hot, cold, wet, or windy it might be!

Date:

Astronomy

Jan. 17, 2014 Rise Set
Actual Time 7:29 AM EST 4:54 PM EST
Civil Twilight 6:58 AM EST 5:25 PM EST
Nautical Twilight 6:23 AM EST 6:00 PM EST
Astronomical Twilight 5:49 AM EST 6:34 PM EST
Moon 6:42 PM EST (1/17) 7:52 AM EST (1/17)
Length of Visible Light 10h 27m
Length of Day
9h 24m
Full, 98% of the Moon is Illuminated
Jan 17
Full
Jan 24
Last Quarter
Jan 30
New
Feb 6
First Quarter
Feb 14
Full

Hourly Weather History & Observations

Time (EST) Temp. Windchill Dew Point Humidity Pressure Visibility Wind Dir Wind Speed Gust Speed Precip Events Conditions
12:53 AM 24.1 °F 17.0 °F 19.0 °F 81% 29.91 in 10.0 mi ESE 5.8 mph - N/A   Mostly Cloudy
1:53 AM 24.1 °F - 19.0 °F 81% 29.91 in 10.0 mi Calm Calm - N/A   Overcast
2:53 AM 24.1 °F 18.2 °F 19.9 °F 84% 29.90 in 10.0 mi SE 4.6 mph - N/A   Overcast
3:53 AM 25.0 °F 16.3 °F 19.9 °F 81% 29.88 in 10.0 mi ESE 8.1 mph - N/A   Overcast
4:53 AM 25.0 °F 19.3 °F 21.0 °F 85% 29.88 in 10.0 mi SE 4.6 mph - N/A   Overcast
5:53 AM 27.0 °F 19.5 °F 21.0 °F 78% 29.87 in 10.0 mi ESE 6.9 mph - N/A   Overcast
6:53 AM 27.0 °F 19.5 °F 21.0 °F 78% 29.87 in 10.0 mi East 6.9 mph - N/A   Overcast
8:28 AM 28.0 °F 20.0 °F 21.9 °F 78% 29.89 in 3.0 mi ESE 8.1 mph - 0.00 in Snow Light Snow
8:41 AM 28.0 °F 20.8 °F 23.0 °F 81% 29.89 in 1.8 mi East 6.9 mph - 0.00 in Snow Light Snow
8:50 AM 28.4 °F 20.4 °F 23.0 °F 80% 29.89 in 3.0 mi East 8.1 mph - 0.00 in Snow Light Snow
8:53 AM 28.0 °F 21.7 °F 23.0 °F 81% 29.91 in 4.0 mi East 5.8 mph - 0.00 in Snow Light Snow
9:53 AM 30.0 °F 24.1 °F 23.0 °F 75% 29.91 in 10.0 mi ESE 5.8 mph - 0.00 in   Overcast
10:53 AM 30.9 °F 25.2 °F 23.0 °F 72% 29.91 in 10.0 mi SE 5.8 mph - N/A   Overcast
11:53 AM 33.1 °F 27.7 °F 23.0 °F 66% 29.88 in 10.0 mi ESE 5.8 mph - N/A   Overcast
12:53 PM 36.0 °F 29.6 °F 23.0 °F 59% 29.86 in 10.0 mi SW 8.1 mph - N/A   Mostly Cloudy
1:53 PM 37.9 °F 31.5 °F 21.9 °F 53% 29.86 in 10.0 mi SW 9.2 mph - N/A   Mostly Cloudy
2:53 PM 37.9 °F 31.5 °F 21.0 °F 51% 29.86 in 10.0 mi SSW 9.2 mph - N/A   Mostly Cloudy
3:53 PM 37.9 °F 34.4 °F 21.9 °F 53% 29.86 in 10.0 mi SSE 4.6 mph - N/A   Overcast
4:53 PM 37.0 °F 33.3 °F 23.0 °F 57% 29.87 in 10.0 mi South 4.6 mph - N/A   Overcast
5:53 PM 35.1 °F 30.1 °F 23.0 °F 61% 29.88 in 10.0 mi South 5.8 mph - N/A   Overcast
6:53 PM 34.0 °F 28.0 °F 23.0 °F 64% 29.89 in 10.0 mi South 6.9 mph - N/A   Overcast
7:53 PM 34.0 °F 28.8 °F 24.1 °F 67% 29.89 in 10.0 mi SSE 5.8 mph - N/A   Overcast
8:53 PM 30.0 °F 24.1 °F 23.0 °F 75% 29.91 in 10.0 mi East 5.8 mph - N/A   Clear
9:53 PM 30.0 °F 24.1 °F 23.0 °F 75% 29.90 in 10.0 mi East 5.8 mph - N/A   Clear
10:53 PM 30.0 °F 24.1 °F 21.9 °F 72% 29.89 in 10.0 mi East 5.8 mph - N/A   Clear
11:53 PM 28.9 °F 21.9 °F 21.9 °F 75% 29.88 in 10.0 mi East 6.9 mph - N/A   Clear